Location: Waco, TX
(31.5480°N, 97.1670°W)
Time: 09:10:25
(UTC-05:00)

ISS - Pass Details

Date: 16 October 2019
Orbit: 411 x 421 km, 51.6° (Epoch: 18 October)

Event Time Altitude Azimuth Distance (km) Brightness Sun altitude
Rises 17:17:01 0° 320° (NW) 2,344 0.2 19.2°
Reaches altitude 10° 17:19:09 10° 326° (NW) 1,478 -0.8 18.8°
Maximum altitude 17:22:23 50° 43° (NE) 533 -3.4 18.2°
Drops below altitude 10° 17:25:36 10° 120° (ESE) 1,469 -1.3 17.6°
Sets 17:27:43 0° 125° (SE) 2,327 -0.3 17.2°
